Location: Clarion
(42.7316°N, 93.7330°W)
Time: 22:00:32
(UTC+00:00)

Cosmos 1238 Rocket - Pass Details

Date: 22 April 2026
Orbit: 352 x 701 km, 82.9° (Epoch: 12 May)

Event Time Altitude Azimuth Distance (km) Brightness Sun altitude
Exits shadow 10:13:23 13° 290° (WNW) 1,201 4.2 -12.4°
Drops below altitude 10° 10:14:42 10° 317° (NW) 1,369 4.7 -12.2°
Sets 10:17:35 0° 348° (NNW) 2,276 6.2 -11.7°
